Kayseri, Turkey

11:19 AM EET on February 14, 2016 (GMT +0200)
Erkilet Air Base

Weather History for LTAU - November, 2011

Change the Weather History Date:

Friday, November 25, 2011

  Actual Average Record
Temperature  
Mean Temperature 26 °F -  
Max Temperature 39 °F 42 °F 64 °F (1996)
Min Temperature 12 °F 23 °F 14 °F (2011)
Degree Days  
Heating Degree Days 40    
Moisture  
Dew Point 12 °F    
Average Humidity 67    
Maximum Humidity 93    
Minimum Humidity 10    
Precipitation  
Precipitation 0.00 in - - ()
Sea Level Pressure  
Sea Level Pressure 30.31 in    
Wind  
Wind Speed 4 mph ()    
Max Wind Speed 10 mph    
Max Gust Speed 18 mph    
Visibility 6.4 miles    
Events      
Averages and records for this station are not official NWS values.
T = Trace of Precipitation, MM = Missing Value Source: Averaged Metar Reports

Daily Weather History Graph

Daily Weather History Graph

Search for Another Location

Airport or City:

Trip Planner

Search our weather history database for the weather conditions in past years. The results will help you decide how hot, cold, wet, or windy it might be!

Date:

Astronomy

Nov. 25, 2011 Rise Set
Actual Time 6:30 AM EET 4:18 PM EET
Civil Twilight 6:01 AM EET 4:48 PM EET
Nautical Twilight 5:29 AM EET 5:20 PM EET
Astronomical Twilight 4:57 AM EET 5:52 PM EET
Moon 6:34 AM EET (11/25) 4:26 PM EET (11/25)
Length of Visible Light 10h 46m
Length of Day
9h 48m
New Moon, 0% of the Moon is Illuminated
Nov 25
New Moon
Dec 2
First Quarter
Dec 10
Full
Dec 18
Last Quarter
Dec 24
New

Hourly Weather History & Observations

Time (EET) Temp. Windchill Dew Point Humidity Pressure Visibility Wind Dir Wind Speed Gust Speed Precip Events Conditions
12:20 AM 21.2 °F 10.9 °F 17.6 °F 86% 30.30 in - NNE 9.2 mph - N/A   Clear
12:50 AM 19.4 °F 9.5 °F 15.8 °F 86% 30.33 in - NNE 8.1 mph - N/A   Clear
1:20 AM 19.4 °F 14.3 °F 15.8 °F 86% 30.33 in - NE 3.5 mph - N/A   Clear
1:50 AM 17.6 °F 12.3 °F 14.0 °F 86% 30.33 in - NE 3.5 mph - N/A   Clear
2:00 AM 17 °F - 15 °F 91%  in 12 mi NE 2.3 mph - -  
2:20 AM 17.6 °F 10.7 °F 14.0 °F 86% 30.33 in - ENE 4.6 mph - N/A   Clear
2:50 AM 17.6 °F 12.3 °F 15.8 °F 93% 30.33 in - NNE 3.5 mph - N/A   Clear
3:20 AM 17.6 °F - 15.8 °F 93% 30.33 in - Calm Calm - N/A   Clear
4:20 AM 14.0 °F 6.5 °F 10.4 °F 86% 30.33 in - NNE 4.6 mph - N/A   Clear
4:50 AM 15.8 °F - 14.0 °F 93% 30.33 in - Variable 2.3 mph - N/A   Clear
5:20 AM 14.0 °F 6.5 °F 12.2 °F 93% 30.33 in - NE 4.6 mph - N/A   Clear
5:50 AM 14.0 °F - 12.2 °F 93% 30.33 in - NNE 2.3 mph - N/A   Clear
6:20 AM 14.0 °F - 10.4 °F 86% 30.33 in - NNE 2.3 mph - N/A   Clear
6:50 AM 14.0 °F 6.5 °F 12.2 °F 93% 30.36 in - NNE 4.6 mph - N/A   Clear
7:20 AM 17.6 °F 9.3 °F 14.0 °F 86% 30.36 in - NNE 5.8 mph - N/A   Clear
7:50 AM 19.4 °F 11.5 °F 15.8 °F 86% 30.36 in - NNE 5.8 mph - N/A   Clear
8:00 AM 19 °F - 17 °F 86%  in 12 mi NNE 5.8 mph - -  
8:20 AM 23.0 °F 12.4 °F 15.8 °F 74% 30.36 in - ENE 10.4 mph - N/A   Clear
8:50 AM 24.8 °F 15.3 °F 15.8 °F 69% 30.36 in - NE 9.2 mph - N/A   Clear
9:20 AM 26.6 °F 19.1 °F 17.6 °F 69% 30.36 in - NE 6.9 mph - N/A   Clear
9:50 AM 28.4 °F 24.6 °F 17.6 °F 64% 30.33 in - ENE 3.5 mph 18.4 mph N/A   Clear
10:20 AM 30.2 °F - 17.6 °F 60% 30.33 in - Variable 2.3 mph - N/A   Clear
10:50 AM 32.0 °F - 15.8 °F 51% 30.33 in - Variable 2.3 mph - N/A   Clear
11:20 AM 33.8 °F - 12.2 °F 41% 30.30 in - Variable 1.2 mph - N/A   Clear
11:50 AM 33.8 °F 30.8 °F 6.8 °F 32% 30.30 in - East 3.5 mph - N/A   Clear
12:20 PM 35.6 °F 32.8 °F 5.0 °F 28% 30.27 in - NE 3.5 mph - N/A   Clear
12:50 PM 37.4 °F 34.9 °F 5.0 °F 26% 30.27 in - Variable 3.5 mph - N/A   Clear
1:20 PM 37.4 °F - 3.2 °F 24% 30.27 in - Variable 1.2 mph - N/A   Clear
1:50 PM 39.2 °F - 3.2 °F 22% 30.27 in - Calm Calm - N/A   Clear
2:00 PM 38 °F - 1 °F 10%  in 12 mi Calm Calm - -  
2:20 PM 39.2 °F - 5.0 °F 24% 30.27 in - Calm Calm - N/A   Clear
2:50 PM 39.2 °F - 6.8 °F 26% 30.27 in - Calm Calm - N/A   Clear
3:20 PM 39.2 °F - 5.0 °F 24% 30.27 in - Calm Calm - N/A   Clear
3:50 PM 35.6 °F 32.8 °F 8.6 °F 33% 30.27 in - West 3.5 mph - N/A   Clear
4:20 PM 30.2 °F 23.4 °F 15.8 °F 55% 30.27 in - WSW 6.9 mph - N/A   Clear
4:50 PM 26.6 °F 19.1 °F 14.0 °F 59% 30.27 in - WSW 6.9 mph - N/A   Clear
5:20 PM 26.6 °F - 15.8 °F 64% 30.27 in - Calm Calm - N/A   Clear
5:50 PM 26.6 °F - 15.8 °F 64% 30.27 in - Calm Calm - N/A   Clear
6:20 PM 24.8 °F - 15.8 °F 69% 30.30 in 3.7 mi Calm Calm - N/A   Unknown
6:50 PM 24.8 °F - 15.8 °F 69% 30.30 in 3.7 mi Calm Calm - N/A   Unknown
7:20 PM 21.2 °F - 15.8 °F 80% 30.30 in 3.7 mi Calm Calm - N/A   Unknown
7:50 PM 19.4 °F - 14.0 °F 80% 30.30 in 4.3 mi Calm Calm - N/A   Unknown
8:00 PM 19 °F - 14 °F 74%  in 4 mi Calm Calm - -   Mist
8:20 PM 19.4 °F - 12.2 °F 74% 30.30 in 5.0 mi Calm Calm - N/A   Unknown
8:50 PM 17.6 °F - 12.2 °F 79% 30.30 in 4.3 mi NNE 2.3 mph - N/A   Unknown
9:20 PM 17.6 °F 12.3 °F 12.2 °F 79% 30.30 in 5.6 mi NE 3.5 mph - N/A   Unknown
9:50 PM 17.6 °F - 12.2 °F 79% 30.30 in - NE 1.2 mph - N/A   Clear
10:20 PM 14.0 °F - 10.4 °F 86% 30.30 in - NNE 1.2 mph - N/A   Clear
10:50 PM 14.0 °F 8.2 °F 8.6 °F 79% 30.30 in - NNE 3.5 mph - N/A   Clear
11:20 PM 15.8 °F 10.2 °F 10.4 °F 79% 30.30 in - NE 3.5 mph - N/A   Clear
11:50 PM 15.8 °F - 10.4 °F 79% 30.27 in - Calm Calm - N/A   Clear